| time (UTC) | temp F | wind direction | speed MPH | gust MPH | rain 1hr in | rain 24hr in | rain mn in | humidity % | barometer mb |
| 20260831094538 | 52 | 225 | 2.0 | 8.0 | 0.01 | 0.02 | 0.02 | 93 | 1019.1 |
| 20260831093519 | 53 | 225 | 3.0 | 11.0 | 0.01 | 0.02 | 0.02 | 92 | 1018.8 |
| 20260831092518 | 53 | 225 | 4.0 | 11.0 | 0.01 | 0.02 | 0.02 | 92 | 1018.7 |
| 20260831091518 | 53 | 225 | 3.0 | 13.0 | 0.01 | 0.02 | 0.02 | 92 | 1018.4 |
| 20260831090520 | 54 | 225 | 3.0 | 15.0 | 0.01 | 0.02 | 0.02 | 92 | 1018.2 |
| 20260831085538 | 54 | 225 | 2.0 | 9.0 | 0.01 | 0.02 | 0.02 | 92 | 1017.7 |
| 20260831084518 | 54 | 225 | 3.0 | 17.0 | 0.01 | 0.02 | 0.02 | 91 | 1017.3 |
| 20260831083520 | 55 | 225 | 4.0 | 16.0 | 0.01 | 0.02 | 0.02 | 90 | 1016.8 |
| 20260831082538 | 57 | 248 | 4.0 | 14.0 | 0.00 | 0.01 | 0.01 | 87 | 1016.3 |
| 20260831081538 | 59 | 225 | 7.0 | 21.0 | 0.00 | 0.01 | 0.01 | 85 | 1016.1 |
| 20260831080519 | 62 | 225 | 4.0 | 16.0 | 0.00 | 0.01 | 0.01 | 83 | 1015.6 |
| 20260831075519 | 64 | 225 | 7.0 | 20.0 | 0.00 | 0.01 | 0.01 | 80 | 1015.3 |
| 20260831074518 | 65 | 225 | 6.0 | 18.0 | 0.00 | 0.01 | 0.01 | 78 | 1014.9 |
| 20260831073520 | 67 | 225 | 3.0 | 14.0 | 0.00 | 0.01 | 0.01 | 74 | 1014.7 |
| 20260831072518 | 68 | 225 | 2.0 | 11.0 | 0.00 | 0.01 | 0.01 | 69 | 1014.4 |
| 20260831071518 | 69 | 248 | 2.0 | 10.0 | 0.00 | 0.01 | 0.01 | 68 | 1014.4 |
| 20260831070518 | 70 | 225 | 1.0 | 10.0 | 0.00 | 0.01 | 0.01 | 69 | 1014.4 |
| 20260831065518 | 70 | 270 | 2.0 | 8.0 | 0.00 | 0.01 | 0.01 | 69 | 1014.3 |
| 20260831064518 | 70 | 270 | 1.0 | 4.0 | 0.00 | 0.01 | 0.01 | 71 | 1014.4 |
| 20260831063518 | 69 | 270 | 4.0 | 12.0 | 0.00 | 0.01 | 0.01 | 70 | 1014.4 |
| 20260831062518 | 70 | 225 | 2.0 | 8.0 | 0.00 | 0.01 | 0.01 | 69 | 1014.4 |
| 20260831061518 | 70 | 248 | 5.0 | 19.0 | 0.00 | 0.01 | 0.01 | 69 | 1014.4 |
| 20260831060519 | 70 | 225 | 4.0 | 13.0 | 0.00 | 0.01 | 0.01 | 70 | 1014.1 |
| 20260831055538 | 70 | 248 | 4.0 | 13.0 | 0.00 | 0.01 | 0.01 | 70 | 1014.3 |
| 20260831054518 | 69 | 270 | 4.0 | 14.0 | 0.00 | 0.01 | 0.01 | 72 | 1014.3 |
| 20260831053518 | 68 | 225 | 3.0 | 12.0 | 0.00 | 0.01 | 0.01 | 73 | 1014.3 |
| 20260831052518 | 68 | 270 | 2.0 | 11.0 | 0.00 | 0.01 | 0.01 | 74 | 1014.4 |
| 20260831051538 | 68 | 248 | 1.0 | 7.0 | 0.00 | 0.01 | 0.01 | 74 | 1014.1 |
| 20260831050538 | 69 | 248 | 1.0 | 9.0 | 0.00 | 0.01 | 0.01 | 74 | 1014.1 |
| 20260831045518 | 69 | 225 | 2.0 | 7.0 | 0.00 | 0.01 | 0.01 | 73 | 1014.2 |
| 20260831044517 | 69 | 293 | 4.0 | 14.0 | 0.00 | 0.01 | 0.01 | 74 | 1014.2 |
| 20260831043518 | 69 | 270 | 1.0 | 7.0 | 0.00 | 0.01 | 0.01 | 75 | 1014.3 |
| 20260831042518 | 68 | 293 | 2.0 | 8.0 | 0.00 | 0.01 | 0.01 | 77 | 1014.5 |
| 20260831041538 | 67 | 270 | 2.0 | 9.0 | 0.00 | 0.01 | 0.01 | 77 | 1014.6 |
| 20260831040518 | 67 | 248 | 1.0 | 5.0 | 0.00 | 0.01 | 0.01 | 76 | 1014.7 |
| 20260831035518 | 68 | 270 | 3.0 | 10.0 | 0.00 | 0.01 | 0.01 | 73 | 1014.9 |
| 20260831034517 | 69 | 248 | 1.0 | 9.0 | 0.00 | 0.01 | 0.01 | 72 | 1015.0 |
| 20260831033518 | 69 | 248 | 2.0 | 12.0 | 0.00 | 0.01 | 0.01 | 72 | 1014.9 |
| 20260831032518 | 69 | 248 | 1.0 | 5.0 | 0.00 | 0.01 | 0.01 | 72 | 1015.1 |
| 20260831031517 | 68 | 248 | 1.0 | 7.0 | 0.00 | 0.01 | 0.01 | 73 | 1015.1 |
| 20260831030518 | 68 | 270 | 2.0 | 12.0 | 0.00 | 0.01 | 0.01 | 72 | 1015.2 |
| 20260831025517 | 69 | 270 | 1.0 | 5.0 | 0.00 | 0.01 | 0.01 | 73 | 1015.5 |
| 20260831024517 | 68 | 270 | 1.0 | 11.0 | 0.00 | 0.01 | 0.01 | 73 | 1015.6 |
| 20260831023519 | 67 | 270 | 1.0 | 8.0 | 0.00 | 0.01 | 0.01 | 75 | 1015.4 |
| 20260831022518 | 67 | 248 | 1.0 | 5.0 | 0.00 | 0.01 | 0.01 | 75 | 1015.6 |
| 20260831021518 | 66 | 248 | 1.0 | 9.0 | 0.00 | 0.01 | 0.01 | 76 | 1015.6 |
| 20260831020518 | 66 | 248 | 1.0 | 10.0 | 0.00 | 0.01 | 0.01 | 76 | 1015.9 |
| 20260831015517 | 66 | 248 | 1.0 | 6.0 | 0.00 | 0.01 | 0.01 | 78 | 1016.0 |
| 20260831014518 | 65 | 248 | 1.0 | 6.0 | 0.00 | 0.01 | 0.01 | 78 | 1015.9 |
| 20260831013519 | 65 | 270 | 1.0 | 11.0 | 0.00 | 0.01 | 0.01 | 79 | 1016.0 |
| 20260831012517 | 64 | 270 | 2.0 | 11.0 | 0.00 | 0.01 | 0.01 | 80 | 1016.2 |
| 20260831011517 | 63 | 248 | 1.0 | 7.0 | 0.00 | 0.01 | 0.01 | 82 | 1016.2 |
| 20260831010518 | 63 | 270 | 2.0 | 9.0 | 0.00 | 0.01 | 0.01 | 83 | 1016.3 |
| 20260831005517 | 62 | 248 | 1.0 | 4.0 | 0.00 | 0.01 | 0.01 | 86 | 1016.5 |
| 20260831004517 | 62 | 270 | 1.0 | 6.0 | 0.00 | 0.01 | 0.01 | 87 | 1016.6 |
| 20260831003518 | 61 | 248 | 1.0 | 8.0 | 0.00 | 0.01 | 0.01 | 89 | 1016.6 |
| 20260831002517 | 60 | 0.0 | 1.0 | 0.00 | 0.01 | 0.01 | 91 | 1016.6 | |
| 20260831001538 | 59 | 0.0 | 1.0 | 0.00 | 0.01 | 0.01 | 92 | 1016.5 | |
| 20260831000518 | 59 | 0.0 | 0.0 | 0.00 | 0.01 | 0.01 | 93 | 1016.7 | |
| 20260830235537 | 58 | 0.0 | 0.0 | 0.00 | 0.01 | 0.01 | 93 | 1016.7 | |
| 20260830234517 | 58 | 0.0 | 1.0 | 0.00 | 0.01 | 0.01 | 93 | 1016.6 | |
| 20260830233519 | 57 | 0.0 | 0.0 | 0.00 | 0.01 | 0.01 | 93 | 1016.5 | |
| 20260830232517 | 57 | 0.0 | 1.0 | 0.00 | 0.01 | 0.01 | 93 | 1016.5 | |
| 20260830231517 | 57 | 0.0 | 0.0 | 0.00 | 0.01 | 0.01 | 93 | 1016.4 | |
| 20260830230518 | 57 | 0.0 | 0.0 | 0.00 | 0.01 | 0.01 | 93 | 1016.4 | |
| 20260830225537 | 57 | 0.0 | 1.0 | 0.00 | 0.01 | 0.01 | 93 | 1016.5 | |
| 20260830224517 | 56 | 0.0 | 4.0 | 0.00 | 0.01 | 0.01 | 94 | 1016.4 | |
| 20260830223518 | 55 | 0.0 | 2.0 | 0.00 | 0.01 | 0.01 | 93 | 1016.3 | |
| 20260830222517 | 55 | 0.0 | 0.0 | 0.00 | 0.01 | 0.01 | 93 | 1016.1 | |
| 20260830221519 | 55 | 0.0 | 0.0 | 0.00 | 0.02 | 0.01 | 92 | 1016.1 | |
| 20260830220520 | 56 | 0.0 | 0.0 | 0.01 | 0.02 | 0.01 | 93 | 1016.2 | |
| 20260830215519 | 56 | 0.0 | 0.0 | 0.01 | 0.02 | 0.01 | 93 | 1016.1 | |
| 20260830214519 | 56 | 0.0 | 0.0 | 0.01 | 0.02 | 0.01 | 93 | 1016.1 | |
| 20260830213519 | 55 | 0.0 | 0.0 | 0.01 | 0.02 | 0.01 | 93 | 1016.1 | |
| 20260830212519 | 55 | 0.0 | 0.0 | 0.01 | 0.02 | 0.01 | 92 | 1016.1 | |
| 20260830211519 | 56 | 0.0 | 0.0 | 0.01 | 0.02 | 0.01 | 93 | 1016.1 | |
| 20260830210519 | 56 | 0.0 | 0.0 | 0.00 | 0.02 | 0.00 | 92 | 1015.9 | |
| 20260830205519 | 56 | 0.0 | 0.0 | 0.00 | 0.02 | 0.00 | 92 | 1015.9 | |
| 20260830204539 | 56 | 0.0 | 0.0 | 0.00 | 0.02 | 0.00 | 92 | 1015.9 | |
| 20260830203539 | 56 | 0.0 | 0.0 | 0.00 | 0.02 | 0.00 | 92 | 1015.8 | |
| 20260830202518 | 57 | 0.0 | 0.0 | 0.00 | 0.02 | 0.00 | 92 | 1016.0 | |
| 20260830201518 | 57 | 0.0 | 0.0 | 0.00 | 0.02 | 0.00 | 93 | 1015.9 | |
| 20260830200519 | 58 | 0.0 | 0.0 | 0.00 | 0.02 | 0.00 | 93 | 1015.7 | |
| 20260830195519 | 57 | 0.0 | 0.0 | 0.00 | 0.02 | 0.00 | 93 | 1015.7 | |
| 20260830194539 | 57 | 0.0 | 0.0 | 0.00 | 0.04 | 0.00 | 93 | 1015.7 | |
| 20260830193519 | 57 | 0.0 | 0.0 | 0.00 | 0.05 | 0.00 | 93 | 1015.7 | |
| 20260830192519 | 57 | 0.0 | 0.0 | 0.00 | 0.05 | 0.00 | 93 | 1015.7 | |
| 20260830191519 | 57 | 0.0 | 0.0 | 0.00 | 0.05 | 0.00 | 93 | 1015.8 | |
| 20260830190519 | 57 | 0.0 | 0.0 | 0.00 | 0.05 | 0.00 | 93 | 1015.9 | |
| 20260830185518 | 57 | 0.0 | 0.0 | 0.00 | 0.05 | 0.00 | 93 | 1016.0 | |
| 20260830184518 | 57 | 0.0 | 0.0 | 0.00 | 0.06 | 0.00 | 93 | 1016.0 | |
| 20260830183518 | 57 | 0.0 | 0.0 | 0.00 | 0.06 | 0.00 | 93 | 1016.3 | |
| 20260830182518 | 57 | 0.0 | 0.0 | 0.00 | 0.08 | 0.00 | 93 | 1016.4 | |
| 20260830181519 | 56 | 0.0 | 0.0 | 0.00 | 0.09 | 0.00 | 93 | 1016.5 | |
| 20260830180539 | 56 | 0.0 | 0.0 | 0.00 | 0.11 | 0.00 | 93 | 1016.5 | |
| 20260830175518 | 56 | 0.0 | 0.0 | 0.00 | 0.11 | 0.00 | 93 | 1016.6 | |
| 20260830174518 | 56 | 0.0 | 0.0 | 0.00 | 0.12 | 0.00 | 93 | 1016.8 | |
| 20260830173519 | 56 | 0.0 | 0.0 | 0.00 | 0.12 | 0.00 | 93 | 1016.9 | |
| 20260830172518 | 56 | 0.0 | 0.0 | 0.00 | 0.12 | 0.00 | 93 | 1017.1 | |
| 20260830171518 | 56 | 0.0 | 0.0 | 0.00 | 0.12 | 0.00 | 93 | 1017.1 | |
| 20260830170518 | 55 | 0.0 | 0.0 | 0.00 | 0.12 | 0.00 | 93 | 1017.2 | |
| 20260830165518 | 55 | 0.0 | 0.0 | 0.00 | 0.12 | 0.00 | 93 | 1017.3 | |
| 20260830164518 | 55 | 0.0 | 0.0 | 0.00 | 0.12 | 0.00 | 93 | 1017.4 | |
| 20260830163518 | 55 | 0.0 | 0.0 | 0.00 | 0.12 | 0.00 | 92 | 1017.6 | |
| 20260830162518 | 55 | 0.0 | 0.0 | 0.00 | 0.12 | 0.00 | 92 | 1017.7 | |
| 20260830161538 | 56 | 0.0 | 0.0 | 0.00 | 0.12 | 0.00 | 92 | 1017.8 | |
| 20260830160518 | 57 | 0.0 | 0.0 | 0.00 | 0.12 | 0.00 | 93 | 1018.1 | |
| 20260830155518 | 57 | 0.0 | 0.0 | 0.00 | 0.12 | 0.12 | 93 | 1018.1 | |
| 20260830154518 | 57 | 0.0 | 0.0 | 0.00 | 0.12 | 0.12 | 93 | 1018.2 | |
| 20260830153519 | 57 | 0.0 | 0.0 | 0.00 | 0.12 | 0.12 | 93 | 1018.4 | |
| 20260830152518 | 57 | 0.0 | 0.0 | 0.00 | 0.12 | 0.12 | 93 | 1018.5 | |
| 20260830151519 | 56 | 0.0 | 0.0 | 0.00 | 0.12 | 0.12 | 93 | 1018.6 | |
| 20260830150519 | 56 | 0.0 | 0.0 | 0.00 | 0.12 | 0.12 | 92 | 1018.7 | |
| 20260830145518 | 56 | 0.0 | 0.0 | 0.00 | 0.12 | 0.12 | 92 | 1018.8 | |
| 20260830144538 | 56 | 0.0 | 0.0 | 0.00 | 0.12 | 0.12 | 92 | 1018.9 | |
| 20260830143518 | 56 | 0.0 | 0.0 | 0.00 | 0.12 | 0.12 | 92 | 1019.0 | |
| 20260830142519 | 56 | 0.0 | 0.0 | 0.00 | 0.12 | 0.12 | 92 | 1019.1 | |
| 20260830141518 | 56 | 0.0 | 0.0 | 0.00 | 0.12 | 0.12 | 91 | 1019.3 | |
| 20260830140519 | 57 | 0.0 | 0.0 | 0.00 | 0.12 | 0.12 | 91 | 1019.3 | |
| 20260830135518 | 57 | 0.0 | 0.0 | 0.00 | 0.12 | 0.12 | 91 | 1019.4 | |
| 20260830134519 | 58 | 0.0 | 0.0 | 0.00 | 0.12 | 0.12 | 92 | 1019.5 | |
| 20260830133518 | 58 | 0.0 | 0.0 | 0.00 | 0.12 | 0.12 | 92 | 1019.5 | |
| 20260830132518 | 58 | 0.0 | 0.0 | 0.00 | 0.12 | 0.12 | 91 | 1019.6 | |
| 20260830131518 | 58 | 0.0 | 0.0 | 0.00 | 0.12 | 0.12 | 91 | 1019.7 | |
| 20260830130539 | 59 | 0.0 | 0.0 | 0.00 | 0.12 | 0.12 | 91 | 1019.6 | |
| 20260830125518 | 59 | 0.0 | 0.0 | 0.00 | 0.12 | 0.12 | 91 | 1019.5 | |
| 20260830124518 | 59 | 0.0 | 0.0 | 0.00 | 0.12 | 0.12 | 91 | 1019.5 | |
| 20260830123519 | 59 | 0.0 | 0.0 | 0.00 | 0.12 | 0.12 | 91 | 1019.6 | |
| 20260830122518 | 60 | 0.0 | 0.0 | 0.00 | 0.12 | 0.12 | 91 | 1019.7 | |
| 20260830121619 | 60 | 0.0 | 0.0 | 0.00 | 0.12 | 0.12 | 90 | 1019.8 | |
| 20260830120519 | 60 | 0.0 | 0.0 | 0.00 | 0.12 | 0.12 | 90 | 1019.9 | |
| 20260830115558 | 60 | 0.0 | 0.0 | 0.00 | 0.12 | 0.12 | 89 | 1020.0 | |
| 20260830114518 | 60 | 0.0 | 0.0 | 0.00 | 0.12 | 0.12 | 89 | 1020.0 | |
| 20260830113518 | 61 | 0.0 | 0.0 | 0.00 | 0.12 | 0.12 | 88 | 1020.1 | |
| 20260830112518 | 61 | 0.0 | 0.0 | 0.00 | 0.12 | 0.12 | 88 | 1019.9 | |
| 20260830111538 | 61 | 0.0 | 0.0 | 0.00 | 0.12 | 0.12 | 88 | 1020.0 | |
| 20260830110538 | 62 | 0.0 | 0.0 | 0.00 | 0.12 | 0.12 | 87 | 1019.9 | |
| 20260830105518 | 62 | 0.0 | 0.0 | 0.00 | 0.12 | 0.12 | 87 | 1019.8 | |
| 20260830104538 | 63 | 0.0 | 0.0 | 0.00 | 0.12 | 0.12 | 86 | 1019.8 | |
| 20260830103538 | 63 | 0.0 | 0.0 | 0.00 | 0.12 | 0.12 | 85 | 1019.7 | |
| 20260830102518 | 64 | 0.0 | 0.0 | 0.00 | 0.12 | 0.12 | 85 | 1019.6 | |
| 20260830101519 | 65 | 0.0 | 0.0 | 0.00 | 0.12 | 0.12 | 84 | 1019.5 | |
| 20260830100518 | 65 | 0.0 | 0.0 | 0.00 | 0.12 | 0.12 | 83 | 1019.4 | |
| 20260830095518 | 67 | 0.0 | 0.0 | 0.00 | 0.12 | 0.12 | 81 | 1019.3 |